Location: Ferintosh
(52.7647°N, 112.9692°W)
Time: 14:10:30
(UTC+00:00)

S-56A Canister/Altair - Pass Details

Date: 28 May 2024
Orbit: 637 x 2489 km, 38.9° (Epoch: 20 June)

Event Time Altitude Azimuth Distance (km) Brightness Sun altitude
Rises 15:45:13 0° 265° (W) 5,745 11.5 37.4°
Reaches altitude 10° 15:49:49 10° 257° (WSW) 4,486 11.1 38.1°
Maximum altitude 15:59:29 31° 202° (SSW) 2,496 10.4 39.5°
Drops below altitude 10° 16:06:29 10° 143° (SE) 3,206 11.5 40.5°
Sets 16:09:13 0° 133° (SE) 3,932 11.9 40.9°
